EWG2KD LDSP-EDDK

Flight info

Callsign EWG2KD
Flight time 1h 37m
Altitude 34000
Route ZDA1W/05 ZDA DCT MONFA DCT BAKOR DCT SOTOV DCT KPT DCT KUNOD L608 KOVAN T844 UMDAS/N0386F240 T844 ASKIK T840 GULKO GULKO1C
Aircraft A320/M-SDE3FGHIRWY/LB1

Departure

Time 2026-04-26 18:56
Airport Split Saint Jerome Airport (LDSP)

Arrival

Time 2026-04-26 20:33
Airport Cologne Bonn Airport (EDDK)
Time Latitude Longitude Altitude Speed Heading
2026-04-26 18:20 43.53726 16.29873 82 ft 0 kts 114°
2026-04-26 18:51 43.53725 16.29875 52 ft 0 kts 122°
2026-04-26 18:51 43.53723 16.29875 52 ft 1 kts 140°
2026-04-26 18:52 43.53719 16.29866 79 ft 2 kts 245°
2026-04-26 18:52 43.53726 16.29833 80 ft 7 kts 283°
2026-04-26 18:52 43.53734 16.29768 85 ft 5 kts 263°
2026-04-26 18:52 43.53706 16.29703 90 ft 5 kts 232°
2026-04-26 18:53 43.53691 16.29655 85 ft 9 kts 259°
2026-04-26 18:53 43.53690 16.29650 86 ft 0 kts 263°
2026-04-26 18:55 43.53689 16.29585 85 ft 15 kts 274°
2026-04-26 18:55 43.53733 16.29501 84 ft 5 kts 20°
2026-04-26 18:55 43.53762 16.29555 86 ft 24 kts 50°
2026-04-26 18:55 43.54048 16.30071 71 ft 109 kts 53°
2026-04-26 18:56 43.54650 16.31140 171 ft 163 kts 51°
2026-04-26 18:56 43.55308 16.32355 1066 ft 158 kts 54°
2026-04-26 18:56 43.55688 16.33774 1855 ft 162 kts 86°
2026-04-26 18:56 43.55453 16.35374 2138 ft 186 kts 118°
2026-04-26 18:57 43.54490 16.36632 2519 ft 200 kts 155°
2026-04-26 18:57 43.54066 16.36842 2681 ft 201 kts 167°
2026-04-26 18:57 43.51808 16.37603 3655 ft 202 kts 152°
2026-04-26 18:57 43.50548 16.38466 4214 ft 203 kts 152°
2026-04-26 18:58 43.49712 16.39051 4614 ft 204 kts 152°
2026-04-26 18:58 43.48013 16.40228 4947 ft 208 kts 152°
2026-04-26 18:58 43.47136 16.40793 4976 ft 204 kts 159°
2026-04-26 18:58 43.45757 16.41099 5447 ft 204 kts 189°
2026-04-26 18:59 43.44504 16.40093 5661 ft 224 kts 231°
2026-04-26 18:59 43.43532 16.38267 5882 ft 249 kts 235°
2026-04-26 18:59 43.42519 16.36223 6267 ft 270 kts 236°
2026-04-26 18:59 43.41446 16.34037 6866 ft 280 kts 234°
2026-04-26 19:00 43.40307 16.31830 7591 ft 285 kts 233°
2026-04-26 19:00 43.39267 16.29503 8376 ft 289 kts 248°
2026-04-26 19:00 43.38920 16.26775 9143 ft 294 kts 273°
2026-04-26 19:00 43.39436 16.24057 9898 ft 298 kts 298°
2026-04-26 19:01 43.40729 16.21828 10525 ft 305 kts 318°
2026-04-26 19:01 43.42365 16.19798 10726 ft 328 kts 319°
2026-04-26 19:01 43.44123 16.17664 11077 ft 343 kts 320°
2026-04-26 19:01 43.45935 16.15477 11738 ft 348 kts 320°
2026-04-26 19:02 43.47754 16.13276 12520 ft 348 kts 320°
2026-04-26 19:02 43.49573 16.11064 13279 ft 350 kts 319°
2026-04-26 19:02 43.51398 16.08833 13982 ft 352 kts 319°
2026-04-26 19:02 43.52612 16.07342 14382 ft 354 kts 319°
2026-04-26 19:03 43.55060 16.04328 15147 ft 359 kts 319°
2026-04-26 19:03 43.56933 16.02022 15710 ft 363 kts 319°
2026-04-26 19:03 43.58822 15.99693 16290 ft 366 kts 319°
2026-04-26 19:03 43.60729 15.97336 16832 ft 370 kts 319°
2026-04-26 19:04 43.62658 15.94950 17401 ft 374 kts 319°
2026-04-26 19:04 43.64608 15.92541 17953 ft 378 kts 319°
2026-04-26 19:04 43.66576 15.90110 18489 ft 382 kts 319°
2026-04-26 19:04 43.68563 15.87652 18978 ft 384 kts 319°
2026-04-26 19:05 43.72563 15.82691 19989 ft 388 kts 319°
2026-04-26 19:05 43.74579 15.80187 20489 ft 390 kts 319°
2026-04-26 19:05 43.76600 15.77674 20983 ft 392 kts 319°
2026-04-26 19:06 43.78636 15.75145 21474 ft 394 kts 319°
2026-04-26 19:06 43.80682 15.72605 21961 ft 396 kts 319°
2026-04-26 19:06 43.82738 15.70044 22438 ft 398 kts 319°
2026-04-26 19:06 43.84799 15.67473 22903 ft 400 kts 319°
2026-04-26 19:07 43.86876 15.64884 23362 ft 402 kts 319°
2026-04-26 19:07 43.88956 15.62289 23805 ft 403 kts 318°
2026-04-26 19:07 43.91046 15.59674 24196 ft 405 kts 318°
2026-04-26 19:07 43.93139 15.57050 24582 ft 407 kts 318°
2026-04-26 19:08 43.95243 15.54414 24939 ft 409 kts 318°
2026-04-26 19:08 43.97359 15.51763 25295 ft 410 kts 318°
2026-04-26 19:08 43.99477 15.49101 25660 ft 412 kts 318°
2026-04-26 19:08 44.01607 15.46423 26019 ft 414 kts 318°
2026-04-26 19:09 44.03742 15.43738 26371 ft 415 kts 317°
2026-04-26 19:09 44.05889 15.41035 26720 ft 417 kts 317°
2026-04-26 19:09 44.08042 15.38316 27064 ft 419 kts 317°
2026-04-26 19:09 44.10186 15.35569 27389 ft 420 kts 316°
2026-04-26 19:10 44.12246 15.32751 27748 ft 421 kts 314°
2026-04-26 19:10 44.14283 15.29814 28089 ft 423 kts 313°
2026-04-26 19:10 44.16301 15.26822 28438 ft 424 kts 313°
2026-04-26 19:10 44.18319 15.23812 28760 ft 426 kts 313°
2026-04-26 19:11 44.20352 15.20799 29069 ft 428 kts 313°
2026-04-26 19:11 44.22402 15.17784 29375 ft 429 kts 313°
2026-04-26 19:11 44.24469 15.14771 29663 ft 431 kts 314°
2026-04-26 19:11 44.26553 15.11752 29956 ft 432 kts 314°
2026-04-26 19:12 44.28642 15.08723 30233 ft 434 kts 314°
2026-04-26 19:12 44.30735 15.05680 30466 ft 435 kts 314°
2026-04-26 19:12 44.32829 15.02621 30709 ft 436 kts 313°
2026-04-26 19:12 44.34957 14.99504 30949 ft 438 kts 313°
2026-04-26 19:13 44.37055 14.96430 31264 ft 437 kts 313°
2026-04-26 19:13 44.39147 14.93366 31594 ft 436 kts 313°
2026-04-26 19:13 44.41239 14.90303 31920 ft 435 kts 313°
2026-04-26 19:13 44.43323 14.87250 32245 ft 434 kts 313°
2026-04-26 19:14 44.45403 14.84195 32564 ft 433 kts 313°
2026-04-26 19:14 44.47471 14.81147 32878 ft 432 kts 313°
2026-04-26 19:14 44.49540 14.78096 33186 ft 431 kts 313°
2026-04-26 19:14 44.50908 14.76077 33404 ft 431 kts 313°
2026-04-26 19:15 44.53668 14.72011 33815 ft 430 kts 313°
2026-04-26 19:15 44.55726 14.68975 34057 ft 430 kts 312°
2026-04-26 19:15 44.57771 14.65954 34104 ft 425 kts 312°
2026-04-26 19:16 44.61812 14.59967 34105 ft 421 kts 312°
2026-04-26 19:16 44.65832 14.53993 34105 ft 420 kts 312°
2026-04-26 19:17 44.69841 14.48013 34102 ft 420 kts 312°
2026-04-26 19:17 44.73842 14.42035 34100 ft 420 kts 312°
2026-04-26 19:18 44.77848 14.36064 34104 ft 420 kts 312°
2026-04-26 19:18 44.81853 14.30073 34104 ft 420 kts 312°
2026-04-26 19:19 44.85844 14.24070 34102 ft 419 kts 312°
2026-04-26 19:19 44.89825 14.18070 34112 ft 419 kts 312°
2026-04-26 19:20 44.93805 14.12072 34117 ft 418 kts 312°
2026-04-26 19:20 44.97783 14.06080 34122 ft 418 kts 312°
2026-04-26 19:21 45.01740 14.00091 34122 ft 417 kts 312°
2026-04-26 19:21 45.05698 13.94078 34118 ft 417 kts 312°
2026-04-26 19:22 45.09648 13.88067 34109 ft 417 kts 312°
2026-04-26 19:22 45.13651 13.82209 34121 ft 417 kts 314°
2026-04-26 19:23 45.17831 13.76523 34114 ft 416 kts 315°
2026-04-26 19:23 45.22023 13.70863 34111 ft 416 kts 315°
2026-04-26 19:24 45.26177 13.65140 34108 ft 416 kts 314°
2026-04-26 19:24 45.32372 13.56500 34110 ft 416 kts 314°
2026-04-26 19:25 45.35804 13.51715 34107 ft 416 kts 314°
2026-04-26 19:25 45.40634 13.44991 34111 ft 416 kts 314°
2026-04-26 19:26 45.44784 13.39182 34111 ft 415 kts 314°
2026-04-26 19:26 45.48871 13.33446 34103 ft 415 kts 314°
2026-04-26 19:27 45.53010 13.27645 34104 ft 414 kts 314°
2026-04-26 19:27 45.57108 13.21875 34096 ft 414 kts 314°
2026-04-26 19:28 45.61198 13.16103 34105 ft 413 kts 314°
2026-04-26 19:28 45.65288 13.10327 34084 ft 414 kts 313°
2026-04-26 19:29 45.69382 13.04528 34088 ft 414 kts 314°
2026-04-26 19:29 45.73469 12.98722 34102 ft 414 kts 313°
2026-04-26 19:30 45.77550 12.92910 34108 ft 414 kts 313°
2026-04-26 19:30 45.80941 12.88083 34108 ft 413 kts 313°
2026-04-26 19:31 45.85705 12.81292 34113 ft 413 kts 313°
2026-04-26 19:31 45.89771 12.75463 34099 ft 413 kts 313°
2026-04-26 19:32 45.93830 12.69619 34104 ft 413 kts 312°
2026-04-26 19:32 45.97891 12.63767 34095 ft 413 kts 312°
2026-04-26 19:33 46.01955 12.57914 34097 ft 413 kts 312°
2026-04-26 19:33 46.06020 12.52070 34101 ft 413 kts 312°
2026-04-26 19:34 46.10079 12.46201 34105 ft 413 kts 312°
2026-04-26 19:34 46.14129 12.40321 34111 ft 413 kts 312°
2026-04-26 19:35 46.18164 12.34436 34122 ft 412 kts 312°
2026-04-26 19:35 46.22198 12.28548 34118 ft 412 kts 312°
2026-04-26 19:36 46.24893 12.24619 34122 ft 411 kts 312°
2026-04-26 19:36 46.30249 12.16791 34124 ft 411 kts 312°
2026-04-26 19:37 46.34271 12.10900 34132 ft 411 kts 311°
2026-04-26 19:37 46.38287 12.04990 34128 ft 412 kts 311°
2026-04-26 19:38 46.42302 11.99066 34123 ft 412 kts 311°
2026-04-26 19:38 46.46320 11.93125 34123 ft 413 kts 311°
2026-04-26 19:39 46.50338 11.87176 34121 ft 413 kts 311°
2026-04-26 19:39 46.53674 11.82220 34114 ft 413 kts 311°
2026-04-26 19:40 46.57644 11.76322 34125 ft 413 kts 311°
2026-04-26 19:40 46.61659 11.70349 34117 ft 413 kts 311°
2026-04-26 19:41 46.65672 11.64358 34105 ft 413 kts 311°
2026-04-26 19:41 46.68999 11.59383 34105 ft 412 kts 311°
2026-04-26 19:42 46.73667 11.52374 34110 ft 412 kts 311°
2026-04-26 19:42 46.77661 11.46360 34117 ft 413 kts 311°
2026-04-26 19:43 46.81652 11.40350 34159 ft 412 kts 311°
2026-04-26 19:43 46.85638 11.34328 34157 ft 412 kts 311°
2026-04-26 19:44 46.89617 11.28306 34182 ft 412 kts 311°
2026-04-26 19:44 46.93589 11.22284 34173 ft 412 kts 313°
2026-04-26 19:45 46.98126 11.17110 34200 ft 415 kts 321°
2026-04-26 19:45 47.02818 11.12179 34189 ft 415 kts 321°
2026-04-26 19:46 47.07379 11.07357 34224 ft 416 kts 321°
2026-04-26 19:46 47.12024 11.02424 34215 ft 416 kts 321°
2026-04-26 19:47 47.15957 10.98246 34214 ft 416 kts 321°
2026-04-26 19:47 47.21426 10.92421 34222 ft 416 kts 321°
2026-04-26 19:48 47.26109 10.87418 34226 ft 416 kts 321°
2026-04-26 19:48 47.30790 10.82406 34222 ft 416 kts 322°
2026-04-26 19:49 47.35460 10.77404 34223 ft 415 kts 322°
2026-04-26 19:49 47.40132 10.72373 34227 ft 415 kts 321°
2026-04-26 19:50 47.44789 10.67352 34221 ft 415 kts 321°
2026-04-26 19:50 47.49467 10.62302 34216 ft 415 kts 322°
2026-04-26 19:51 47.54131 10.57263 34229 ft 415 kts 322°
2026-04-26 19:51 47.58791 10.52211 34227 ft 415 kts 322°
2026-04-26 19:52 47.63433 10.47155 34221 ft 415 kts 322°
2026-04-26 19:52 47.68092 10.42069 34222 ft 415 kts 322°
2026-04-26 19:53 47.72749 10.36989 34223 ft 415 kts 322°
2026-04-26 19:53 47.77350 10.31812 34231 ft 414 kts 320°
2026-04-26 19:54 47.81793 10.26355 34222 ft 414 kts 318°
2026-04-26 19:54 47.86210 10.20832 34223 ft 415 kts 319°
2026-04-26 19:55 47.90628 10.15399 34224 ft 414 kts 320°
2026-04-26 19:55 47.95106 10.09924 34221 ft 414 kts 320°
2026-04-26 19:56 47.99557 10.04471 34223 ft 414 kts 319°
2026-04-26 19:56 48.04001 9.99002 34237 ft 414 kts 319°
2026-04-26 19:57 48.08443 9.93522 34235 ft 414 kts 319°
2026-04-26 19:57 48.12883 9.88033 34234 ft 414 kts 319°
2026-04-26 19:58 48.17307 9.82538 34217 ft 413 kts 320°
2026-04-26 19:58 48.21739 9.77031 34224 ft 413 kts 320°
2026-04-26 19:59 48.26156 9.71529 34246 ft 412 kts 320°
2026-04-26 19:59 48.30565 9.66025 34243 ft 412 kts 320°
2026-04-26 20:00 48.34963 9.60506 34235 ft 412 kts 319°
2026-04-26 20:00 48.39324 9.54949 34238 ft 411 kts 319°
2026-04-26 20:01 48.43675 9.49350 34230 ft 411 kts 319°
2026-04-26 20:01 48.48211 9.44212 34244 ft 409 kts 329°
2026-04-26 20:02 48.53120 9.39858 34248 ft 408 kts 329°
2026-04-26 20:02 48.57183 9.36247 34236 ft 407 kts 329°
2026-04-26 20:03 48.62885 9.31172 34230 ft 407 kts 329°
2026-04-26 20:03 48.67757 9.26819 34231 ft 407 kts 329°
2026-04-26 20:04 48.72631 9.22455 34237 ft 406 kts 329°
2026-04-26 20:04 48.77524 9.18065 34217 ft 406 kts 329°
2026-04-26 20:05 48.82374 9.13703 34230 ft 405 kts 329°
2026-04-26 20:05 48.87228 9.09359 34233 ft 404 kts 332°
2026-04-26 20:06 48.92465 9.06309 34240 ft 404 kts 341°
2026-04-26 20:06 48.97773 9.03647 34254 ft 404 kts 341°
2026-04-26 20:07 49.03104 9.00959 34247 ft 403 kts 341°
2026-04-26 20:07 49.08427 8.98255 34241 ft 403 kts 341°
2026-04-26 20:08 49.13749 8.95566 34245 ft 403 kts 341°
2026-04-26 20:08 49.19071 8.92875 34241 ft 403 kts 340°
2026-04-26 20:09 49.24400 8.90244 34239 ft 403 kts 342°
2026-04-26 20:09 49.29769 8.87760 34229 ft 402 kts 342°
2026-04-26 20:10 49.35131 8.85288 34238 ft 402 kts 342°
2026-04-26 20:10 49.40487 8.82791 34248 ft 402 kts 342°
2026-04-26 20:11 49.45481 8.80450 34241 ft 402 kts 342°
2026-04-26 20:12 49.53454 8.76448 33161 ft 403 kts 330°
2026-04-26 20:12 49.55835 8.74004 32024 ft 411 kts 324°
2026-04-26 20:12 49.58139 8.71439 31237 ft 413 kts 324°
2026-04-26 20:12 49.60466 8.68824 30753 ft 406 kts 324°
2026-04-26 20:13 49.62712 8.66298 30211 ft 402 kts 324°
2026-04-26 20:13 49.64965 8.63775 29599 ft 398 kts 324°
2026-04-26 20:13 49.67203 8.61284 28997 ft 394 kts 324°
2026-04-26 20:13 49.69445 8.58796 28372 ft 391 kts 324°
2026-04-26 20:14 49.71469 8.56546 27818 ft 388 kts 324°
2026-04-26 20:14 49.73653 8.54117 27224 ft 385 kts 324°
2026-04-26 20:14 49.75849 8.51675 26633 ft 383 kts 324°
2026-04-26 20:14 49.78001 8.49276 26055 ft 380 kts 324°
2026-04-26 20:15 49.80142 8.46883 25494 ft 378 kts 324°
2026-04-26 20:15 49.82192 8.44590 24969 ft 375 kts 324°
2026-04-26 20:15 49.84304 8.42223 24400 ft 373 kts 324°
2026-04-26 20:15 49.86376 8.39901 23859 ft 372 kts 324°
2026-04-26 20:16 49.88462 8.37559 23350 ft 367 kts 323°
2026-04-26 20:16 49.90400 8.35376 22935 ft 362 kts 323°
2026-04-26 20:16 49.92422 8.33099 22494 ft 357 kts 323°
2026-04-26 20:16 49.94421 8.30847 22052 ft 353 kts 323°
2026-04-26 20:17 49.96403 8.28618 21614 ft 350 kts 323°
2026-04-26 20:17 49.98364 8.26406 21179 ft 347 kts 323°
2026-04-26 20:17 49.99652 8.24951 20891 ft 345 kts 323°
2026-04-26 20:17 50.01584 8.22763 20462 ft 342 kts 323°
2026-04-26 20:18 50.03503 8.20589 20045 ft 340 kts 323°
2026-04-26 20:18 50.05410 8.18433 19617 ft 338 kts 323°
2026-04-26 20:18 50.07306 8.16286 19200 ft 336 kts 323°
2026-04-26 20:18 50.09191 8.14146 18790 ft 334 kts 323°
2026-04-26 20:19 50.11065 8.12014 18350 ft 333 kts 323°
2026-04-26 20:19 50.12929 8.09890 17925 ft 330 kts 323°
2026-04-26 20:19 50.14775 8.07785 17527 ft 328 kts 323°
2026-04-26 20:19 50.16609 8.05698 17111 ft 325 kts 323°
2026-04-26 20:20 50.18427 8.03625 16725 ft 323 kts 323°
2026-04-26 20:20 50.20236 8.01561 16344 ft 321 kts 323°
2026-04-26 20:20 50.22030 7.99512 15953 ft 319 kts 323°
2026-04-26 20:20 50.23818 7.97468 15527 ft 319 kts 323°
2026-04-26 20:21 50.25616 7.95412 15043 ft 321 kts 323°
2026-04-26 20:21 50.27421 7.93344 14560 ft 323 kts 323°
2026-04-26 20:21 50.29233 7.91262 14084 ft 324 kts 323°
2026-04-26 20:21 50.31048 7.89173 13554 ft 324 kts 323°
2026-04-26 20:22 50.32869 7.87078 13030 ft 325 kts 323°
2026-04-26 20:22 50.34688 7.84984 12499 ft 324 kts 323°
2026-04-26 20:22 50.36501 7.82897 11991 ft 324 kts 323°
2026-04-26 20:22 50.38316 7.80807 11492 ft 323 kts 323°
2026-04-26 20:23 50.40121 7.78722 11003 ft 322 kts 323°
2026-04-26 20:23 50.41917 7.76648 10521 ft 321 kts 323°
2026-04-26 20:23 50.43699 7.74586 10027 ft 319 kts 323°
2026-04-26 20:23 50.45479 7.72518 9503 ft 317 kts 323°
2026-04-26 20:24 50.47248 7.70460 8983 ft 316 kts 323°
2026-04-26 20:24 50.49010 7.68413 8471 ft 314 kts 323°
2026-04-26 20:24 50.50752 7.66360 7967 ft 312 kts 320°
2026-04-26 20:24 50.52374 7.64096 7469 ft 310 kts 318°
2026-04-26 20:25 50.53971 7.61828 6982 ft 309 kts 318°
2026-04-26 20:25 50.55022 7.60331 6661 ft 308 kts 318°
2026-04-26 20:25 50.57101 7.57366 5984 ft 305 kts 318°
2026-04-26 20:25 50.58698 7.55068 5459 ft 304 kts 317°
2026-04-26 20:26 50.59996 7.53197 5032 ft 302 kts 317°
2026-04-26 20:26 50.61548 7.50982 4521 ft 301 kts 318°
2026-04-26 20:26 50.63084 7.48796 4188 ft 286 kts 318°
2026-04-26 20:26 50.64482 7.46800 4166 ft 257 kts 318°
2026-04-26 20:27 50.65736 7.45010 4167 ft 232 kts 318°
2026-04-26 20:27 50.66915 7.43324 4170 ft 227 kts 318°
2026-04-26 20:27 50.68081 7.41656 4173 ft 226 kts 318°
2026-04-26 20:27 50.69244 7.39991 4176 ft 226 kts 318°
2026-04-26 20:28 50.70407 7.38325 4174 ft 224 kts 318°
2026-04-26 20:28 50.71526 7.36721 4009 ft 211 kts 318°
2026-04-26 20:28 50.72594 7.35189 3758 ft 205 kts 317°
2026-04-26 20:28 50.73621 7.33716 3518 ft 194 kts 317°
2026-04-26 20:29 50.74599 7.32310 3238 ft 186 kts 317°
2026-04-26 20:29 50.75534 7.30967 2983 ft 178 kts 317°
2026-04-26 20:29 50.76421 7.29691 2776 ft 171 kts 318°
2026-04-26 20:29 50.77294 7.28435 2530 ft 168 kts 318°
2026-04-26 20:30 50.78142 7.27215 2308 ft 158 kts 319°
2026-04-26 20:30 50.78921 7.26092 2098 ft 151 kts 319°
2026-04-26 20:30 50.79697 7.24976 1894 ft 150 kts 320°
2026-04-26 20:30 50.80467 7.23879 1666 ft 148 kts 319°
2026-04-26 20:31 50.81219 7.22818 1495 ft 141 kts 317°
2026-04-26 20:31 50.81938 7.21775 1339 ft 139 kts 317°
2026-04-26 20:31 50.82633 7.20726 1140 ft 139 kts 319°
2026-04-26 20:31 50.83352 7.19704 926 ft 138 kts 319°
2026-04-26 20:32 50.84055 7.18689 784 ft 136 kts 321°
2026-04-26 20:32 50.84757 7.17666 565 ft 139 kts 317°
2026-04-26 20:32 50.85459 7.16644 384 ft 135 kts 320°
2026-04-26 20:32 50.86114 7.15704 289 ft 115 kts 318°
2026-04-26 20:33 50.86602 7.15014 263 ft 74 kts 319°
2026-04-26 20:33 50.86844 7.14580 255 ft 48 kts 294°
2026-04-26 20:33 50.86891 7.14284 257 ft 0 kts 280°
2026-04-26 20:34 50.86894 7.14263 257 ft 5 kts 279°
2026-04-26 20:34 50.86914 7.14125 252 ft 18 kts 294°
2026-04-26 20:35 50.86999 7.13969 248 ft 20 kts 319°
2026-04-26 20:35 50.87112 7.13807 244 ft 24 kts 320°
2026-04-26 20:35 50.87244 7.13622 240 ft 27 kts 315°
2026-04-26 20:35 50.87358 7.13447 237 ft 22 kts 318°
2026-04-26 20:36 50.87481 7.13269 233 ft 25 kts 317°
2026-04-26 20:36 50.87617 7.13070 230 ft 28 kts 317°
2026-04-26 20:36 50.87750 7.12878 231 ft 23 kts 317°
2026-04-26 20:36 50.87776 7.12684 230 ft 17 kts 257°
2026-04-26 20:37 50.87782 7.12516 230 ft 10 kts 289°
2026-04-26 20:37 50.87798 7.12436 230 ft 1 kts 289°
2026-04-26 20:37 50.87801 7.12424 230 ft 1 kts 290°
2026-04-26 20:37 50.87803 7.12415 230 ft 1 kts 290°
2026-04-26 20:38 50.87804 7.12412 231 ft 0 kts 290°
2026-04-26 20:38 50.87805 7.12407 233 ft 0 kts 289°
2026-04-26 20:38 50.87806 7.12402 232 ft 0 kts 287°
2026-04-26 20:38 50.87806 7.12401 232 ft 0 kts 290°